SCOUT A R/B, 1865

Orbit data source: Space-Track

SCOUT A R/B, 1865 is space debris in LEO originally from a launch on Wed, 22 Dec 1965 UTC launched from the Air Force Western Test Range (AFWTR). Debris objects in space refer to the collection of defunct objects orbiting the Earth. Examples of debris include non-operational satellites, rocket bodies, and fragments generated from explosions, collisions, or faulty payload assembly.

Loading next visibility...
Identifier
1865, 1965-109B
Orbit
LEO
Last TLE update
10 hours ago
Origin
Manufacturer
ABL
Mission
Spacecraft
Bus & Motor
ALTAIR, Unknown motor
Mass
33 kg wet, 33 kg dry
Launch date (UTC)
1965-12-22 (60 years ago)
Launch vehicle
Unknown
Launch site
Air Force Western Test Range (AFWTR)
Object type
Payload
Rocket body
Debris
Shape & HBR
Cyl, 1.5 m
Radar Cross Section
0.687 m², Medium (>0.1 m² and < 1m²)

Expand to show TLE details & history

TLE from 10 hours ago
0 SCOUT A R/B
1 01865U 65109B   25186.35341255  .00000104  00000-0  90234-4 0  9998
2 01865  89.0662 283.3069 0109862 314.1059  45.1105 13.76735877985904
Epoch: 2025-07-05T08:28Z
TLE epoch observation values (Epoch: 2025-07-05T08:28:54.844Z)
Latitude
-0.00005°
Longitude
-127.51429°
Altitude
921.902 km
Speed
7.419 km/s
True Right ascension
18h 53m 13s
True Declination
0° 00' 00"
Sunlit
Object was in full shadow at epoch
Visualization orbit readout
Latitude
-85.16455°
Longitude
63.4947°
Altitude
949.262 km
Speed
7.404 km/s
Apparent Right ascension
18h 15m 11s
Apparent Declination
-69° 11' 28"
Sunlit
Object is in daylight
Visualization observer readout
Local Sidereal Time
06:25:21
Azimuth
178.157° S
Elevation
-60.694°
Doppler factor
1
Orbital elements
Apogee altitude
1,053.255 km
Perigee altitude
891.744 km
Semi-major axis
7,350.637 km
Eccentricity
0.01099
Inclination
89.0662°
RAAN
283.3069°
Arg. of periapsis
314.1059°
True anomaly
Unknown
Mean anomaly
45.1105°
Eccentric anomaly
Unknown
Mean motion
3.44394 °/min
Orbital period
104.53 mins
BSTAR
0.000090234
Loading maneuver chart data...
Loading SW <> Apogee altitude chart data...
Loading historical data...
Loading historical data...
Loading historical data...
Loading historical data...
Loading historical data...
Loading historical data...
Loading historical data...

SCOUT A R/B Visibility forecast

Observer location: undefined°, undefined°

Span
Click to sort rows by Start time (UTC) header in descending order
Start Az.
Max El. time (UTC)
Max El. Az.
Max El.
End time (UTC)
End Az.
11 mins2025-07-05 19:31:48.570Z345.982° N2025-07-05 19:37:48.570Z274.818° WNW33.864°2025-07-05 19:42:48.570Z214.375° SW
6 mins2025-07-06 05:34:48.570Z100.591° ESE2025-07-06 05:36:48.570Z76.775° E18.583°2025-07-06 05:40:48.570Z33.891° NE
10 mins2025-07-06 07:16:48.570Z197.65° SSW2025-07-06 07:20:48.570Z265.429° W40.762°2025-07-06 07:26:48.570Z350.984° N
10 mins2025-07-06 18:13:48.570Z17.013° NNE2025-07-06 18:18:48.570Z98.697° ESE38.087°2025-07-06 18:23:48.570Z159.751° S
|